Location: Bouin
(50.3833°N, 1.9833°E)
Time: 01:21:32
(UTC+00:00)

Daily predictions for brighter satellites

Satellite Brightness Start Highest point End
(mag) Time Altitude Azimuth Time Altitude Azimuth Time Altitude Azimuth
ATLAS CENTAUR R/B 3.1 00:01:43 10° NW 00:03:30 25° NNE 00:06:13 10° E
Lacrosse 5 4.1 00:02:35 10° WSW 00:03:12 10° WSW 00:03:12 10° WSW
STARLINK-1226 3.5 00:00:41 10° WNW 00:03:46 57° N 00:06:51 10° E
STARLINK-1215 3.5 00:01:37 10° WNW 00:04:43 58° N 00:07:48 10° E
STARLINK-1225 3.8 00:00:42 10° W 00:04:50 74° NNW 00:09:00 10° ENE
Cosmos 292 Rocket 3.9 00:03:39 32° SW 00:05:54 75° WNW 00:10:47 10° NNE
STARLINK-1217 3.4 00:03:23 10° WNW 00:06:29 58° N 00:09:34 10° E
STARLINK-1229 3.4 00:04:19 10° WNW 00:07:24 59° N 00:10:30 10° E
STARLINK-1271 4.2 00:03:39 10° WNW 00:07:46 59° N 00:11:52 10° E
STARLINK-1104 4.0 00:04:17 10° WNW 00:08:12 41° SW 00:08:12 41° SW
STARLINK-1270 3.4 00:05:10 10° WNW 00:08:16 59° N 00:11:23 10° E
S3M 4.4 00:03:36 10° NNW 00:09:31 51° W 00:12:36 27° SSW
STARLINK-1230 3.8 00:05:41 10° W 00:09:49 72° NNW 00:13:58 10° ENE
STARLINK-1189 3.4 00:07:01 10° WNW 00:10:07 60° NNE 00:13:13 10° E
Cosmos 1726 2.4 00:06:33 10° NNW 00:10:10 54° W 00:10:54 44° SW
Cosmos 1655 Rocket 4.2 00:07:30 27° SSW 00:11:00 64° WNW 00:17:14 10° N
STARLINK-1188 3.4 00:07:54 10° WNW 00:11:00 60° NNE 00:14:06 10° E
Cosmos 2058 Rocket 4.1 00:07:06 10° N 00:11:15 39° ENE 00:13:45 21° SE
STARLINK-1235 3.2 00:08:36 10° WNW 00:11:41 66° NNE 00:14:46 10° E
GEOS 3 Rocket 3.6 00:07:39 17° SE 00:11:43 86° NE 00:17:03 10° NW
STARLINK-1187 3.3 00:09:01 10° WNW 00:12:06 63° NNE 00:15:11 10° E
STARLINK-1154 4.2 00:08:39 10° WNW 00:12:46 59° N 00:16:52 10° E
Meteor 1-29 4.0 00:09:50 10° NNE 00:12:57 33° E 00:13:32 30° ESE
SL-27 R/B 4.1 00:10:10 10° NW 00:13:02 22° W 00:13:10 22° WSW
STARLINK-1144 4.1 00:09:18 10° WNW 00:13:00 38° SW 00:13:00 38° SW
STARLINK-1191 3.3 00:10:23 10° WNW 00:13:28 61° NNE 00:16:33 10° E
Cosmos 2228 3.0 00:09:37 10° N 00:13:54 72° E 00:15:32 36° SSE
COSMOS 2455 3.5 00:11:39 28° SSE 00:14:08 40° ESE 00:19:43 10° NE
SJ 16-02 4.2 00:11:53 10° NNE 00:14:18 14° NE 00:16:43 10° E
STARLINK-1221 3.3 00:11:15 10° WNW 00:14:20 61° NNE 00:17:25 10° E
STARLINK-1243 3.9 00:10:40 10° W 00:14:48 70° NNW 00:18:58 10° ENE
STARLINK-1222 3.3 00:12:09 10° WNW 00:15:14 62° NNE 00:18:18 10° E
Cosmos 2263 4.1 00:12:25 29° SSW 00:15:23 88° WNW 00:21:02 10° NNE
STARLINK-1214 3.3 00:13:04 10° WNW 00:16:09 62° NNE 00:19:13 10° E
Meteor 2-15 Rocket 4.4 00:11:22 10° NNW 00:17:33 85° W 00:20:55 29° S
STARLINK-1197 4.2 00:13:38 10° WNW 00:17:45 60° N 00:21:52 10° E
STARLINK-1103 4.3 00:14:18 10° WNW 00:17:46 35° SW 00:17:46 35° SW
Cosmos 1953 3.0 00:14:40 10° NNW 00:18:27 40° W 00:19:26 34° SW
STARLINK-1236 3.9 00:15:40 10° W 00:19:48 68° NNW 00:23:57 10° ENE
Cosmos 1340 Rocket 3.2 00:16:10 10° NNW 00:20:05 52° W 00:21:08 40° SW
STARLINK-1198 4.1 00:18:36 10° WNW 00:22:43 60° N 00:26:50 10° E
Cosmos 1300 4.0 00:19:32 10° N 00:23:03 33° ENE 00:25:04 20° SE
STARLINK-1101 4.4 00:19:18 10° WNW 00:22:33 32° SW 00:22:33 32° SW
Cosmos 1271 Rocket 4.1 00:21:40 23° WSW 00:23:11 31° WNW 00:26:41 10° N
BREEZE M DEB (TANK) 4.1 00:26:49 16° E 00:26:49 16° E 00:27:36 10° E
COSMOS 2487 2.3 00:23:09 10° NNW 00:26:38 77° WSW 00:27:18 55° S
Cosmos 1833 4.5 00:21:55 10° NW 00:27:22 51° WSW 00:29:45 31° SSW
STARLINK-1199 4.1 00:23:38 10° WNW 00:27:45 61° N 00:31:52 10° E
Cosmos 1992 Rocket 4.0 00:25:15 30° SW 00:27:53 75° WNW 00:33:07 10° NNE
STARLINK-1269 4.0 00:25:38 10° W 00:29:46 65° N 00:33:54 10° ENE
Cosmos 1707 4.2 00:29:05 21° WSW 00:30:39 28° WNW 00:34:05 10° N
STARLINK-1210 4.1 00:28:36 10° WNW 00:32:43 62° N 00:36:51 10° E
STARLINK-1200 4.0 00:30:39 10° W 00:34:47 63° N 00:38:55 10° ENE
Cosmos 1626 3.1 00:34:31 29° SE 00:35:45 38° E 00:39:14 10° NNE
Cosmos 1656 Rocket 3.7 00:33:52 28° SSW 00:36:56 84° WNW 00:42:33 10° NNE
Cosmos 1606 Rocket 3.6 00:32:58 10° NNW 00:37:16 65° W 00:38:48 37° SSW
STARLINK-1219 4.1 00:33:35 10° WNW 00:37:43 63° N 00:41:51 10° E
In-Cosmos 22 4.4 00:35:37 28° SW 00:38:20 58° WNW 00:43:34 10° N
STARLINK-1192 4.1 00:35:39 10° W 00:39:46 62° N 00:43:54 10° ENE
FALCON 9 R/B 3.9 00:38:25 24° S 00:40:30 27° SSE 00:53:23 10° ESE
STARLINK-1211 4.0 00:38:34 10° WNW 00:42:41 64° N 00:46:49 10° E
CZ-4 R/B 3.9 00:38:15 10° N 00:43:06 71° WNW 00:45:23 31° SSW
STARLINK-1244 4.1 00:40:38 10° W 00:44:45 61° N 00:48:52 10° ENE
Cosmos 2297 Rocket 3.6 00:41:38 10° NNW 00:46:55 38° NE 00:52:11 10° ESE
Cosmos 2292 Rocket 4.4 00:45:34 24° WSW 00:47:20 35° WNW 00:50:43 10° N
STARLINK-1245 4.0 00:43:34 10° WNW 00:47:42 66° N 00:51:50 10° E
MOZ.5/SAFIR/RUBIN 5/SL-8 4.5 00:44:15 16° SE 00:47:42 51° ENE 00:52:13 10° N
Meteor 2-21 4.5 00:45:34 27° S 00:49:09 80° E 00:55:21 10° NNE
STARLINK-1138 4.1 00:45:38 10° W 00:49:44 60° N 00:53:52 10° ENE
SL-4 R/B 3.0 00:49:12 32° S 00:50:31 39° SSE 00:54:56 10° ENE
NOSS 5 (C) 4.3 00:48:31 10° NW 00:51:38 78° SW 00:53:30 27° SE
PSLV R/B 3.9 00:47:10 10° N 00:51:46 64° WNW 00:53:53 30° SW
STARLINK-1203 4.2 00:48:13 10° W 00:52:24 60° N 00:56:35 10° ENE
STARLINK-1233 3.9 00:48:32 10° WNW 00:52:41 67° NNE 00:56:49 10° E
Cosmos 1437 3.9 00:52:48 26° ESE 00:53:32 29° E 00:56:14 10° NNE
Cosmos 1674 3.2 00:53:21 33° SW 00:54:35 47° WNW 00:58:14 10° N
STARLINK-1143 4.2 00:50:38 10° W 00:54:45 60° N 00:58:52 10° ENE
SL-19 R/B 4.3 00:51:28 10° NNE 00:56:51 71° ESE 01:00:03 26° S
STARLINK-1204 3.9 00:53:32 10° WNW 00:57:41 69° NNE 01:01:50 10° E
ATLAS CENTAUR R/B 1.6 00:56:56 34° S 00:58:34 58° SE 01:02:39 10° NE
Cosmos 1777 Rocket 3.9 00:53:31 10° NNW 00:58:44 73° WSW 01:01:54 24° S
Timation 2 Rocket 3.9 00:52:33 10° NNW 00:59:01 86° WSW 01:04:30 13° SSE
STARLINK-1241 4.2 00:55:37 10° W 00:59:44 59° N 01:03:51 10° ENE
BREEZE-M R/B 4.3 01:01:07 24° SSE 01:01:14 24° SSE 01:04:06 10° E
NOSS 3-4 (A) 3.4 00:57:31 23° SW 01:01:25 90° WNW 01:07:55 10° NE
NOSS 3-4 (C) 3.4 00:57:37 23° SW 01:01:32 90° E 01:08:01 10° NE
SL-16 R/B 2.9 00:56:02 11° SSE 01:01:52 65° ENE 01:08:00 10° NNW
STARLINK-1238 3.9 00:58:30 10° WNW 01:02:38 71° NNE 01:06:48 10° E
Spot 1 4.3 01:00:54 28° S 01:03:17 72° WSW 01:08:11 10° NNW
STARLINK-29 4.5 01:04:34 23° SE 01:04:34 23° SE 01:06:52 10° E
STARLINK-1239 4.2 01:00:37 10° W 01:04:43 59° N 01:08:50 10° ENE
Cosmos 1455 4.4 01:02:21 10° NNE 01:05:22 22° ENE 01:08:22 10° ESE
ATLAS 3B R/B 2.7 00:59:27 10° NW 01:06:08 62° SW 01:12:42 11° SSE
STARLINK-1201 3.8 01:03:30 10° WNW 01:07:39 73° NNE 01:11:48 10° E
STARLINK-1240 4.2 01:05:37 10° W 01:09:44 59° N 01:13:50 10° E
CENTAUR R/B 3.7 01:02:25 10° NW 01:09:44 38° WSW 01:14:47 21° SSW
BREEZE-M DEB (TANK) 1.7 01:12:38 40° SSE 01:12:38 40° SSE 01:14:39 10° E
STARLINK-1206 3.8 01:08:29 10° WNW 01:12:38 76° NNE 01:16:48 10° ESE
Cosmos 1867 4.2 01:09:31 10° NW 01:14:29 36° WSW 01:16:44 26° SSW
STARLINK-1216 4.2 01:10:37 10° W 01:14:43 59° N 01:18:50 10° E
Meteor 2-21 Rocket 4.4 01:11:40 24° SSW 01:15:33 85° W 01:21:47 10° N
Cosmos 1892 Rocket 3.9 01:14:51 28° SW 01:16:58 55° WNW 01:21:18 10° N
Cosmos 1745 Rocket 4.1 01:12:45 20° S 01:17:03 69° E 01:23:10 10° NNE
STARLINK-1205 3.7 01:13:28 10° WNW 01:17:38 78° NNE 01:21:47 10° ESE
STARLINK-1237 4.2 01:15:37 10° W 01:19:43 59° N 01:23:50 10° E
RESURS DK-1 2.6 01:19:17 29° S 01:21:12 61° ESE 01:25:18 10° NE
STARLINK-1218 3.7 01:18:26 10° WNW 01:22:36 81° NNE 01:26:45 10° ESE
Cosmos 2227 Rocket 2.9 01:17:06 10° NNW 01:22:43 56° NE 01:28:17 10° SE
Cosmos 1356 Rocket 3.3 01:19:01 10° NNW 01:23:11 90° E 01:25:49 22° S
STARLINK-1202 4.2 01:20:37 10° WNW 01:24:44 59° N 01:28:50 10° E
Meteor 1-24 Rocket 3.7 01:22:03 25° SSW 01:25:12 68° WNW 01:30:38 10° N
Cosmos 2369 Rocket 3.9 01:21:35 10° W 01:26:21 27° NW 01:31:08 10° NNE
CZ-2D R/B 2.5 01:21:20 10° NNE 01:26:33 57° E 01:30:15 19° S
Helios 1B rocket 3.9 01:23:22 10° N 01:26:52 27° WNW 01:29:11 17° WSW
STARLINK-1254 3.6 01:23:25 10° WNW 01:27:35 84° NNE 01:31:45 10° ESE
ADEOS II 3.8 01:24:35 10° NE 01:29:00 26° E 01:33:22 10° SSE
ATLAS 2AS CENTAUR R/B 3.3 01:23:17 14° WSW 01:30:24 69° NW 01:38:16 10° NE
STARLINK-1231 3.6 01:28:25 10° WNW 01:32:35 87° NNE 01:36:45 10° ESE
IKONOS-2 4.5 01:29:56 19° SSE 01:32:58 87° WSW 01:37:18 10° NNW
CZ-4C R/B 3.5 01:30:46 23° S 01:33:16 68° WSW 01:37:38 10° NNW
STARLINK-1228 3.4 01:31:05 10° WNW 01:34:15 40° SSW 01:37:25 10° SE
STARLINK-1246 4.2 01:30:36 10° WNW 01:34:42 60° N 01:38:49 10° E
STARLINK-1234 3.3 01:32:32 10° WNW 01:35:29 39° SSW 01:37:02 22° SSE
Resurs 1-4 Rocket 2.3 01:31:03 10° NNE 01:36:21 70° ESE 01:40:11 19° S
STARLINK-1212 3.0 01:33:51 10° WNW 01:36:53 48° SSW 01:39:53 10° SE
Cosmos 1943 Rocket 4.3 01:33:16 10° W 01:37:16 20° NW 01:41:17 10° N
STARLINK-1105 3.0 01:34:20 10° WNW 01:37:20 48° SSW 01:40:20 10° SE
STARLINK-1232 3.5 01:33:24 10° WNW 01:37:34 89° SSW 01:41:44 10° ESE
STARLINK-1209 3.4 01:34:48 10° W 01:37:45 36° SSW 01:38:42 28° S
STARLINK-1247 3.0 01:35:14 10° WNW 01:38:16 47° SSW 01:41:17 10° SE
STARLINK-1227 3.0 01:35:42 10° WNW 01:38:43 46° SSW 01:41:41 10° SE
Meteor 2-5 Rocket 4.4 01:35:17 20° SW 01:38:49 43° WNW 01:44:09 10° N
STARLINK-1226 3.0 01:36:34 10° WNW 01:39:34 46° SSW 01:42:34 10° SE
STARLINK-1224 4.2 01:35:35 10° WNW 01:39:42 60° N 01:43:49 10° E
STARLINK-1215 3.1 01:37:30 10° WNW 01:40:31 45° SSW 01:43:31 10° SE
USA 81 4.4 01:36:19 16° S 01:40:33 65° E 01:45:48 10° NNE
STARLINK-52 3.7 01:39:41 30° S 01:40:33 37° SSE 01:43:34 10° ENE
STARLINK-1217 3.1 01:39:16 10° WNW 01:42:17 44° SSW 01:45:16 10° SE
STARLINK-1208 3.5 01:38:22 10° WNW 01:42:32 86° SSW 01:46:41 10° ESE
STARLINK-1229 3.1 01:40:12 10° WNW 01:43:12 44° SSW 01:46:11 10° SE
NPP 3.8 01:38:22 10° NNE 01:43:47 70° ESE 01:47:57 17° S
STARLINK-1270 3.1 01:41:04 10° WNW 01:44:03 43° SSW 01:47:02 10° SE
STARLINK-1225 4.2 01:40:35 10° WNW 01:44:43 61° N 01:48:49 10° E
STARLINK-1189 3.2 01:42:54 10° WNW 01:45:53 42° SSW 01:48:51 10° SE
STARLINK-1188 3.2 01:43:48 10° WNW 01:46:47 41° SSW 01:49:44 10° SE
STARLINK-1235 3.5 01:44:33 10° W 01:47:23 33° SSW 01:50:13 10° SSE
STARLINK-1271 3.5 01:43:22 10° WNW 01:47:32 82° SSW 01:51:41 10° ESE
STARLINK-1187 3.3 01:44:56 10° WNW 01:47:50 36° SSW 01:50:44 10° SE
Cosmos 1898 Rocket 3.9 01:42:41 10° NNW 01:48:03 68° ENE 01:53:20 10° SSE
Cosmos 2058 Rocket 4.4 01:45:27 10° NNW 01:49:04 25° W 01:51:01 19° SW
STARLINK-1191 3.2 01:46:17 10° WNW 01:49:13 39° SSW 01:52:09 10° SE
Lacrosse 4 Rocket 3.4 01:45:36 10° NNW 01:49:36 33° NE 01:53:29 10° ESE
STARLINK-1230 4.1 01:45:34 10° WNW 01:49:41 62° N 01:53:49 10° E
Starlink 7 placeholder 1.6 01:49:43 60° W 01:49:58 79° NNW 01:51:56 10° ENE
STARLINK-1221 3.2 01:47:10 10° WNW 01:50:05 39° SSW 01:53:00 10° SE
STARLINK-1222 3.3 01:48:03 10° WNW 01:50:59 38° SSW 01:53:53 10° SE
Meteor 1-21 Rocket 4.5 01:46:48 15° S 01:51:26 67° E 01:57:06 10° NNE
STARLINK-1214 3.3 01:48:58 10° WNW 01:51:53 38° SSW 01:54:47 10° SE
STARLINK-1154 3.5 01:48:21 10° WNW 01:52:30 78° SSW 01:56:39 10° ESE
Cosmos 1656 4.4 01:48:20 15° S 01:52:47 47° ESE 01:58:09 10° NE
SJ 16-02 1.4 01:49:11 10° NNW 01:53:38 82° ENE 01:58:05 10° SSE
STARLINK-1243 4.1 01:50:34 10° WNW 01:54:41 63° N 01:58:48 10° E
CZ-4C R/B 3.8 01:50:51 10° SSE 01:54:45 23° ESE 01:59:10 10° ENE
Cosmos 2084 3.8 01:52:18 21° SSW 01:55:07 60° SE 01:59:32 10° NE
SL-08 ROCKET BODY 4.4 01:52:04 19° SSW 01:56:25 67° WNW 02:02:16 10° N
STARLINK-1197 3.5 01:53:20 10° WNW 01:57:28 74° SSW 02:01:37 10° ESE
Cosmos 1937 Rocket 4.1 01:53:06 10° NNW 01:58:18 61° ENE 02:03:30 10° SE
Cosmos 1300 4.2 01:55:32 10° NW 01:58:32 22° W 02:00:01 18° WSW
STARLINK-1236 4.1 01:55:33 10° WNW 01:59:41 64° N 02:03:48 10° E
COSMOS 2455 3.5 01:54:47 13° WSW 02:00:00 50° NW 02:05:53 10° NNE
Meteor 2-10 Rocket 3.5 01:55:16 10° NNW 02:00:40 84° W 02:05:50 10° S
STARLINK-1198 3.5 01:58:17 10° WNW 02:02:25 71° SSW 02:06:33 10° ESE
Cosmos 921 Rocket 3.5 02:00:21 19° SW 02:03:10 48° WNW 02:07:22 10° NNE
Cosmos 1709 Rocket 4.0 02:01:48 14° S 02:07:10 89° E 02:13:21 10° N
STARLINK-1199 3.5 02:03:18 10° WNW 02:07:26 67° SSW 02:11:33 10° SE
Cosmos 1626 Rocket 4.1 02:06:42 18° SW 02:09:34 44° WNW 02:13:45 10° N
STARLINK-1269 4.0 02:05:30 10° WNW 02:09:39 67° NNE 02:13:47 10° E
Cosmos 1626 4.0 02:09:03 13° WSW 02:11:11 19° WNW 02:13:56 10° NNW
STARLINK-60 3.0 02:08:52 14° WSW 02:11:29 79° NNW 02:14:42 10° ENE
STARLINK-1210 3.6 02:08:16 10° WNW 02:12:23 63° SSW 02:16:29 10° SE
STARLINK-1200 4.0 02:10:31 10° WNW 02:14:39 69° NNE 02:18:48 10° E
Cosmos 2219 3.5 02:10:07 10° NW 02:15:34 49° WSW 02:20:57 10° S
STARLINK-1320 4.2 02:14:52 18° S 02:16:25 27° SE 02:19:09 10° E
STARLINK-1322 4.2 02:15:11 18° S 02:16:46 27° SE 02:19:30 10° E
STARLINK-1324 4.2 02:15:32 18° S 02:17:07 28° SE 02:19:51 10° E
STARLINK-1219 3.6 02:13:15 10° WNW 02:17:21 59° SSW 02:21:26 10° SE
STARLINK-1294 4.2 02:15:47 18° S 02:17:24 28° SE 02:20:09 10° E
STARLINK-1261 4.1 02:16:09 18° SSW 02:17:46 28° SE 02:20:30 10° E
STARLINK-1325 4.1 02:16:30 18° SSW 02:18:07 28° SE 02:20:52 10° E
STARLINK-1333 4.1 02:16:48 18° SSW 02:18:26 28° SE 02:21:11 10° E
STARLINK-1334 4.1 02:17:07 18° SSW 02:18:46 28° SE 02:21:31 10° E
STARLINK-1326 4.1 02:17:28 18° SSW 02:19:07 28° SE 02:21:52 10° E
STARLINK-1323 4.1 02:17:47 18° SSW 02:19:27 29° SE 02:22:13 10° E
STARLINK-1192 3.9 02:15:30 10° WNW 02:19:39 71° NNE 02:23:48 10° E
STARLINK-1338 4.3 02:17:39 17° SSW 02:19:42 29° SE 02:22:46 10° E
STARLINK-1349 4.1 02:18:06 18° SSW 02:19:47 29° SE 02:22:32 10° E
STARLINK-1336 4.1 02:18:28 18° SSW 02:20:09 29° SE 02:22:55 10° E
Cosmos 1980 Rocket 4.0 02:15:46 10° SSE 02:20:14 25° ESE 02:24:44 10° NE
STARLINK-1331 4.1 02:18:45 18° SSW 02:20:27 29° SE 02:23:13 10° E
STARLINK-1344 4.1 02:19:05 17° SSW 02:20:47 29° SE 02:23:34 10° E
STARLINK-1343 4.1 02:19:25 17° SSW 02:21:08 29° SE 02:23:54 10° E
STARLINK-1346 4.1 02:19:43 17° SSW 02:21:29 30° SE 02:24:18 10° E
STARLINK-1328 4.0 02:20:05 17° SSW 02:21:49 30° SE 02:24:36 10° E
STARLINK-1354 4.0 02:20:22 17° SSW 02:22:08 30° SE 02:24:55 10° E
STARLINK-1211 3.7 02:18:14 10° WNW 02:22:18 56° SSW 02:26:21 10° SE
STARLINK-1347 4.0 02:20:44 17° SSW 02:22:30 30° SE 02:25:17 10° E
STARLINK-1357 4.0 02:21:01 17° SSW 02:22:48 30° SE 02:25:36 10° E
Cosmos 1328 4.0 02:19:19 11° S 02:23:05 72° E 02:27:04 10° NNE
STARLINK-1335 4.0 02:21:22 17° SSW 02:23:09 30° SE 02:25:57 10° E
STARLINK-1327 4.0 02:21:41 17° SSW 02:23:28 30° SE 02:26:17 10° E
STARLINK-1371 4.3 02:21:31 16° SSW 02:23:42 31° SE 02:26:51 10° E
STARLINK-1340 4.0 02:22:01 17° SSW 02:23:50 31° SE 02:26:39 10° E
STARLINK-1356 4.0 02:22:21 17° SSW 02:24:10 31° SE 02:26:59 10° E
STARLINK-1345 4.0 02:22:41 17° SSW 02:24:30 31° SE 02:27:20 10° E
ERBS 4.2 02:21:27 10° NW 02:24:33 34° NNE 02:27:38 10° E
STARLINK-1244 3.9 02:20:28 10° WNW 02:24:38 73° NNE 02:28:46 10° E
Cosmos 192 4.4 02:20:35 15° SSW 02:24:43 77° WNW 02:29:43 10° NNE
STARLINK-1355 4.0 02:22:59 17° SSW 02:24:50 31° SE 02:27:39 10° E
STARLINK-1321 4.0 02:23:18 17° SSW 02:25:09 31° SE 02:27:59 10° E
STARLINK-1358 3.9 02:23:39 17° SSW 02:25:31 31° SE 02:28:21 10° E
ERS-2 2.9 02:22:01 10° SSE 02:25:35 55° ENE 02:29:12 10° N
STARLINK-1341 4.2 02:23:29 16° SSW 02:25:44 32° SE 02:28:55 10° E
STARLINK-1332 3.9 02:23:57 17° SSW 02:25:50 32° SE 02:28:40 10° E
STARLINK-1348 3.9 02:24:18 17° SSW 02:26:12 32° SE 02:29:02 10° E
STARLINK-1330 3.9 02:24:36 17° SSW 02:26:30 32° SE 02:29:21 10° E
STARLINK-1363 3.9 02:24:56 17° SSW 02:26:51 32° SE 02:29:41 10° E
STARLINK-1337 3.9 02:25:15 17° SSW 02:27:11 32° SE 02:30:02 10° E
STARLINK-1245 3.7 02:23:14 10° WNW 02:27:17 52° SSW 02:31:19 10° SE
IRS-1C 4.5 02:22:11 10° NNE 02:27:31 64° ESE 02:32:49 10° S
STARLINK-1342 3.9 02:25:35 17° SSW 02:27:32 32° SE 02:30:22 10° E
STARLINK-1374 4.2 02:25:26 16° SSW 02:27:47 33° SE 02:30:59 10° E
STARLINK-1364 3.9 02:25:55 16° SSW 02:27:52 33° SE 02:30:43 10° E
AQUA 4.0 02:23:17 10° N 02:28:00 61° WNW 02:32:11 13° SSW
STARLINK-1376 3.9 02:26:15 16° SSW 02:28:13 33° SSE 02:31:04 10° E
Cosmos 1812 Rocket 4.5 02:24:16 10° NNW 02:28:16 32° W 02:31:37 13° SSW
STARLINK-1360 3.9 02:26:30 16° SSW 02:28:29 33° SSE 02:31:21 10° E
STARLINK-1361 3.9 02:26:56 16° SSW 02:28:55 33° SE 02:31:47 10° E
STARLINK-1367 3.9 02:27:10 16° SSW 02:29:11 34° SSE 02:32:05 10° E
STARLINK-1366 3.8 02:27:33 16° SSW 02:29:33 34° SSE 02:32:25 10° E
STARLINK-1138 3.8 02:25:27 10° WNW 02:29:36 75° NNE 02:33:45 10° ESE
STARLINK-1339 4.1 02:27:27 15° SSW 02:29:51 34° SE 02:33:05 10° E
SL-4 R/B 2.4 02:25:13 10° WSW 02:30:03 89° NNW 02:34:43 10° ENE
CZ-4B R/B 3.8 02:25:28 10° N 02:30:30 59° WNW 02:35:12 12° SW
Cosmos 2297 Rocket 2.5 02:25:43 10° NW 02:31:05 46° WSW 02:36:26 10° S
STARLINK-1377 4.1 02:29:28 15° SSW 02:31:56 36° SE 02:35:11 10° ENE
STARLINK-1233 3.8 02:28:13 10° WNW 02:32:14 49° SSW 02:36:14 10° SE
STARLINK-1203 3.8 02:28:15 10° WNW 02:32:29 77° NNE 02:36:42 10° ESE
STARLINK-1353 4.0 02:31:17 15° SSW 02:33:48 36° SE 02:37:02 10° ENE
STARLINK-1143 3.8 02:30:26 10° WNW 02:34:36 77° NNE 02:38:45 10° ESE
Cosmos 2082 3.7 02:29:14 10° NNW 02:34:55 78° WSW 02:40:32 10° SSE
STARLINK-1375 4.0 02:33:04 14° SSW 02:35:39 37° SSE 02:38:54 10° ENE
Cosmos 990 Rocket 4.2 02:31:51 10° NNW 02:36:57 51° WSW 02:42:00 10° S
STARLINK-1204 3.9 02:33:13 10° WNW 02:37:12 46° SSW 02:41:10 10° SE
CBERS-1 4.1 02:32:16 10° NNE 02:37:24 73° WNW 02:42:28 10° SSW
ATLAS CENTAUR R/B 3.0 02:34:00 10° W 02:37:44 28° NW 02:41:15 10° NNE
STARLINK-1350 3.9 02:35:22 14° SSW 02:38:02 39° SSE 02:41:19 10° ENE
Cosmos 540 Rocket 4.4 02:33:24 10° S 02:38:16 44° ESE 02:43:09 10° NE
FALCON 9 DEB 3.1 02:35:24 13° WSW 02:38:25 71° SSE 02:41:53 10° ENE
STARLINK-1241 3.7 02:35:25 10° WNW 02:39:35 80° NNE 02:43:44 10° ESE
STARLINK-29 2.9 02:36:59 10° WSW 02:40:08 85° NNW 02:43:20 10° ENE
STARLINK-1352 3.9 02:37:40 13° SW 02:40:27 41° SSE 02:43:48 10° ENE
Cosmos 1455 3.0 02:37:41 10° NNW 02:41:04 32° W 02:44:16 11° SSW
STARLINK-1238 3.9 02:38:11 10° WNW 02:42:08 43° SSW 02:46:04 10° SE
Cosmos 1825 Rocket 3.6 02:38:21 11° SSW 02:42:30 64° WNW 02:46:49 10° N
STARLINK-1368 3.8 02:39:45 13° SW 02:42:37 42° SSE 02:45:59 10° ENE
STARLINK-1369 3.8 02:41:37 13° SW 02:44:31 43° SSE 02:47:52 10° ENE
STARLINK-1239 3.7 02:40:24 10° WNW 02:44:33 83° NNE 02:48:43 10° ESE
Meteor 1-11 4.5 02:39:26 10° S 02:45:03 72° E 02:50:38 10° NNE
Meteor 1-28 Rocket 3.3 02:41:38 10° SSE 02:45:25 85° ENE 02:49:12 10° NNW
ATLAS CENTAUR R/B 3.0 02:42:48 10° W 02:45:43 30° SW 02:51:32 10° SSE
SL-16 R/B 3.6 02:41:06 11° SSW 02:45:58 26° W 02:51:04 10° NW
Cosmos 2263 Rocket 3.7 02:41:25 10° NNW 02:46:45 41° NE 02:52:01 10° ESE
STARLINK-1372 3.8 02:43:58 12° SW 02:46:59 45° SSE 02:50:23 10° ENE
STARLINK-1201 4.0 02:43:12 10° WNW 02:47:07 40° SW 02:51:00 10° SE
Cosmos 2074 Rocket 4.2 02:42:14 10° S 02:48:30 77° E 02:54:49 10° NNE
Cosmos 372 Rocket 4.3 02:43:32 10° NNW 02:48:40 73° ENE 02:53:47 10° SSE
STARLINK-1378 3.7 02:46:05 12° SW 02:49:12 47° SSE 02:52:37 10° ENE
GP-B 3.8 02:45:09 10° NNW 02:49:18 39° W 02:53:26 10° SSW
STARLINK-1240 3.7 02:45:23 10° WNW 02:49:33 86° NNE 02:53:42 10° ESE
STARLINK-1329 3.7 02:46:35 12° SW 02:49:43 47° SSE 02:53:09 10° ENE
IRS-1D 3.9 02:45:00 10° N 02:50:16 59° WNW 02:55:27 10° SSW
STARLINK-1365 3.6 02:47:17 12° SW 02:50:26 49° SSE 02:53:53 10° ENE
Cosmos 841 Rocket 4.0 02:45:21 10° S 02:50:30 60° ESE 02:55:41 10° NNE
STARLINK-1379 3.7 02:48:13 11° SW 02:51:25 48° SSE 02:54:50 10° ENE
STARLINK-1362 3.7 02:48:47 11° SW 02:52:00 49° SSE 02:55:27 10° ENE
STARLINK-1206 4.1 02:48:12 10° WNW 02:52:04 38° SW 02:55:54 10° SSE
Cosmos-2242 3.6 02:48:39 10° NNW 02:52:38 38° W 02:56:34 10° SSW
Cosmos 1400 Rocket 2.8 02:49:46 10° NNW 02:53:53 77° W 02:58:01 10° S
ATLAS 5 CENTAUR R/B 4.3 02:53:44 10° N 02:53:53 10° N 02:54:03 10° N
STARLINK-1373 3.6 02:50:59 11° SW 02:54:18 50° SSE 02:57:46 10° ENE
STARLINK-1216 3.6 02:50:22 10° WNW 02:54:31 90° N 02:58:41 10° ESE
Cosmos 2221 3.4 02:50:24 10° N 02:54:39 53° ENE 02:58:54 10° SSE
COBE Rocket 3.9 02:50:34 10° S 02:55:30 78° WSW 03:00:37 10° NNW
ATLAS 3B R/B 4.3 02:52:17 10° WNW 02:55:36 14° WSW 02:58:57 10° SW
STARLINK-1390 3.6 02:52:59 10° SW 02:56:21 52° SSE 02:59:49 10° ENE
STARLINK-1205 4.2 02:53:13 10° WNW 02:57:01 35° SW 03:00:48 10° SSE
STARLINK-1237 3.6 02:55:21 10° WNW 02:59:31 87° SSW 03:03:40 10° ESE
RESURS DK-1 4.2 02:56:21 10° W 02:59:36 22° NW 03:02:52 10° N
Cosmos 2184 Rocket 4.1 02:53:50 10° S 03:00:01 87° E 03:06:14 10° N
SL-08 R/B 3.6 02:56:31 10° S 03:01:03 48° W 03:05:34 10° NNW
CZ-4C R/B 3.2 02:57:46 10° SSE 03:01:21 82° ENE 03:05:01 10° NNW
STARLINK-1218 4.3 02:58:12 10° WNW 03:01:57 33° SW 03:05:41 10° SSE
STARLINK-1202 3.6 03:00:20 10° WNW 03:04:30 83° SSW 03:08:39 10° ESE
IRS-P3 4.3 03:00:37 10° N 03:05:53 61° WNW 03:11:07 10° SSW
Cosmos 1703 4.1 03:02:29 10° SW 03:06:10 37° WNW 03:09:53 10° N
CZ-2D R/B 3.4 03:01:58 10° N 03:06:17 26° WNW 03:10:33 10° WSW
Cosmos 2227 Rocket 3.1 03:01:38 10° NW 03:06:28 29° WSW 03:11:16 10° SSW
STARLINK-1254 4.4 03:03:14 10° W 03:06:54 31° SW 03:10:34 10° SSE
ADEOS II 2.5 03:03:52 10° N 03:08:59 53° WNW 03:14:04 10° SW
Cosmos 1763 Rocket 3.7 03:04:16 10° SW 03:09:19 58° WNW 03:14:21 10° NNE
Cosmos 2150 Rocket 4.1 03:05:28 10° NNW 03:10:43 84° ENE 03:15:53 10° SSE
Cosmos 1697 Rocket 2.8 03:05:42 10° SSW 03:11:23 85° WNW 03:17:06 10° NNE
